Time,TemperatureF,DewpointF,PressureIn,WindDirection,WindDirectionDegrees,WindSpeedMPH,WindSpeedGustMPH,Humidity,HourlyPrecipIn,Conditions,Clouds,dailyrainin,SoftwareType,DateUTC
2013-02-25 00:01:00,61.2,60.0,29.95,NE,54,0.0,0.0,96,0.00,,,0.00,weatherlink.com 1.10,2013-02-25 05:01:00,
2013-02-25 00:16:00,61.4,60.0,29.94,NE,54,0.0,0.0,96,0.00,,,0.00,weatherlink.com 1.10,2013-02-25 05:16:00,
2013-02-25 00:31:00,61.4,60.0,29.92,NE,55,0.0,0.0,96,0.00,,,0.00,weatherlink.com 1.10,2013-02-25 05:31:00,
2013-02-25 00:46:00,61.5,60.0,29.92,NE,55,0.0,0.0,96,0.00,,,0.00,weatherlink.com 1.10,2013-02-25 05:46:00,
2013-02-25 01:01:00,61.8,61.0,29.92,ENE,62,0.0,0.0,96,0.00,,,0.00,weatherlink.com 1.10,2013-02-25 06:01:00,
2013-02-25 01:16:00,61.9,61.0,29.91,ENE,63,0.0,0.0,96,0.00,,,0.00,weatherlink.com 1.10,2013-02-25 06:16:00,
2013-02-25 01:31:00,62.0,61.0,29.92,ENE,63,0.0,0.0,97,0.00,,,0.00,weatherlink.com 1.10,2013-02-25 06:31:00,
2013-02-25 01:46:00,62.4,62.0,29.92,ENE,63,0.0,0.0,97,0.00,,,0.00,weatherlink.com 1.10,2013-02-25 06:46:00,
2013-02-25 02:01:00,62.9,62.0,29.90,ENE,63,0.0,0.0,97,0.00,,,0.00,weatherlink.com 1.10,2013-02-25 07:01:00,
2013-02-25 02:16:00,63.3,63.0,29.90,ENE,67,0.0,0.0,97,0.00,,,0.00,weatherlink.com 1.10,2013-02-25 07:16:00,
2013-02-25 02:31:00,63.5,63.0,29.89,East,100,0.0,0.0,97,0.00,,,0.00,weatherlink.com 1.10,2013-02-25 07:31:00,
2013-02-25 02:46:00,63.4,62.0,29.90,East,100,0.0,0.0,96,0.00,,,0.00,weatherlink.com 1.10,2013-02-25 07:46:00,
2013-02-25 03:01:00,63.6,63.0,29.89,East,100,0.0,0.0,97,0.00,,,0.00,weatherlink.com 1.10,2013-02-25 08:01:00,
2013-02-25 03:16:00,63.7,63.0,29.87,East,101,0.0,0.0,97,0.00,,,0.00,weatherlink.com 1.10,2013-02-25 08:16:00,
2013-02-25 03:31:00,63.9,63.0,29.87,SE,143,0.0,0.0,97,0.00,,,0.00,weatherlink.com 1.10,2013-02-25 08:31:00,
2013-02-25 03:46:00,63.7,63.0,29.87,SE,142,0.0,0.0,96,0.00,,,0.00,weatherlink.com 1.10,2013-02-25 08:46:00,
2013-02-25 04:01:00,63.5,63.0,29.86,SE,142,0.0,0.0,97,0.00,,,0.00,weatherlink.com 1.10,2013-02-25 09:01:00,
2013-02-25 04:16:00,63.9,63.0,29.86,SE,143,0.0,0.0,97,0.00,,,0.00,weatherlink.com 1.10,2013-02-25 09:16:00,
2013-02-25 04:31:00,63.7,63.0,29.87,SE,142,0.0,0.0,97,0.00,,,0.00,weatherlink.com 1.10,2013-02-25 09:31:00,
2013-02-25 04:46:00,63.4,63.0,29.87,SE,142,0.0,0.0,97,0.00,,,0.00,weatherlink.com 1.10,2013-02-25 09:46:00,
2013-02-25 05:01:00,63.3,63.0,29.87,SE,142,0.0,0.0,97,0.00,,,0.00,weatherlink.com 1.10,2013-02-25 10:01:00,
2013-02-25 05:16:00,63.0,62.0,29.88,SE,142,0.0,0.0,97,0.00,,,0.00,weatherlink.com 1.10,2013-02-25 10:16:00,
2013-02-25 05:31:00,62.6,62.0,29.88,SE,142,0.0,0.0,97,0.00,,,0.00,weatherlink.com 1.10,2013-02-25 10:31:00,
2013-02-25 05:46:00,62.5,62.0,29.87,SE,142,0.0,0.0,97,0.00,,,0.00,weatherlink.com 1.10,2013-02-25 10:46:00,
2013-02-25 06:01:00,62.4,62.0,29.88,SE,142,0.0,0.0,97,0.00,,,0.00,weatherlink.com 1.10,2013-02-25 11:01:00,
2013-02-25 06:16:00,62.5,62.0,29.88,SE,136,0.0,1.0,97,0.00,,,0.00,weatherlink.com 1.10,2013-02-25 11:16:00,
2013-02-25 06:31:00,62.3,62.0,29.88,SE,136,0.0,0.0,97,0.00,,,0.00,weatherlink.com 1.10,2013-02-25 11:31:00,
2013-02-25 06:46:00,62.2,61.0,29.88,SE,136,0.0,0.0,97,0.00,,,0.00,weatherlink.com 1.10,2013-02-25 11:46:00,
2013-02-25 07:01:00,62.2,61.0,29.89,SE,136,0.0,0.0,97,0.00,,,0.00,weatherlink.com 1.10,2013-02-25 12:01:00,
2013-02-25 07:16:00,62.3,62.0,29.90,SE,137,0.0,0.0,97,0.00,,,0.00,weatherlink.com 1.10,2013-02-25 12:16:00,
2013-02-25 07:31:00,62.4,62.0,29.90,SE,137,0.0,0.0,98,0.00,,,0.00,weatherlink.com 1.10,2013-02-25 12:31:00,
2013-02-25 07:46:00,63.6,63.0,29.90,SE,136,0.0,0.0,98,0.00,,,0.00,weatherlink.com 1.10,2013-02-25 12:46:00,
2013-02-25 08:01:00,65.2,65.0,29.90,SE,135,0.0,0.0,98,0.00,,,0.00,weatherlink.com 1.10,2013-02-25 13:01:00,
2013-02-25 08:16:00,67.0,67.0,29.90,NE,46,0.0,1.0,98,0.00,,,0.00,weatherlink.com 1.10,2013-02-25 13:16:00,
2013-02-25 08:31:00,68.3,68.0,29.91,NNE,27,1.0,3.0,97,0.00,,,0.00,weatherlink.com 1.10,2013-02-25 13:31:00,
2013-02-25 08:46:00,70.9,69.0,29.91,ENE,59,0.0,2.0,93,0.00,,,0.00,weatherlink.com 1.10,2013-02-25 13:46:00,
2013-02-25 09:02:00,72.4,69.0,29.91,NE,55,1.0,3.0,89,0.00,,,0.00,weatherlink.com 1.10,2013-02-25 14:02:00,
2013-02-25 09:17:00,73.3,70.0,29.91,ESE,121,0.0,2.0,89,0.00,,,0.00,weatherlink.com 1.10,2013-02-25 14:17:00,
2013-02-25 09:32:00,75.0,70.0,29.91,NE,44,0.0,4.0,85,0.00,,,0.00,weatherlink.com 1.10,2013-02-25 14:32:00,
2013-02-25 09:47:00,75.8,71.0,29.90,ESE,118,3.0,4.0,84,0.00,,,0.00,weatherlink.com 1.10,2013-02-25 14:47:00,
2013-02-25 10:02:00,77.0,71.0,29.90,NNE,26,0.0,3.0,82,0.00,,,0.00,weatherlink.com 1.10,2013-02-25 15:02:00,
2013-02-25 10:17:00,78.1,72.0,29.89,ESE,117,0.0,6.0,80,0.00,,,0.00,weatherlink.com 1.10,2013-02-25 15:17:00,
2013-02-25 10:32:00,79.4,71.0,29.89,ENE,60,1.0,6.0,76,0.00,,,0.00,weatherlink.com 1.10,2013-02-25 15:32:00,
2013-02-25 10:47:00,79.8,72.0,29.89,NNW,348,3.0,5.0,76,0.00,,,0.00,weatherlink.com 1.10,2013-02-25 15:47:00,
2013-02-25 11:02:00,80.2,72.0,29.90,East,81,1.0,6.0,75,0.00,,,0.00,weatherlink.com 1.10,2013-02-25 16:02:00,
2013-02-25 11:17:00,80.4,71.0,29.89,WSW,238,1.0,4.0,73,0.00,,,0.00,weatherlink.com 1.10,2013-02-25 16:17:00,
2013-02-25 11:32:00,80.5,70.0,29.89,SE,129,1.0,5.0,71,0.00,,,0.00,weatherlink.com 1.10,2013-02-25 16:32:00,
2013-02-25 11:47:00,80.9,70.0,29.88,South,187,0.0,5.0,70,0.00,,,0.00,weatherlink.com 1.10,2013-02-25 16:47:00,
2013-02-25 12:04:00,81.4,69.0,29.87,WNW,298,1.0,6.0,67,0.00,,,0.00,weatherlink.com 1.10,2013-02-25 17:04:00,
2013-02-25 12:17:00,82.5,69.0,29.86,SE,133,6.0,6.0,64,0.00,,,0.00,weatherlink.com 1.10,2013-02-25 17:17:00,
2013-02-25 12:32:00,83.2,69.0,29.86,WNW,291,1.0,6.0,63,0.00,,,0.00,weatherlink.com 1.10,2013-02-25 17:32:00,
2013-02-25 12:47:00,83.7,67.0,29.85,NE,37,2.0,6.0,58,0.00,,,0.00,weatherlink.com 1.10,2013-02-25 17:47:00,
2013-02-25 13:02:00,83.6,66.0,29.84,West,264,1.0,5.0,56,0.00,,,0.00,weatherlink.com 1.10,2013-02-25 18:02:00,
2013-02-25 13:17:00,84.6,68.0,29.83,WNW,286,2.0,5.0,57,0.00,,,0.00,weatherlink.com 1.10,2013-02-25 18:17:00,
2013-02-25 13:32:00,84.9,67.0,29.82,West,264,0.0,4.0,55,0.00,,,0.00,weatherlink.com 1.10,2013-02-25 18:32:00,
2013-02-25 13:47:00,85.7,65.0,29.81,ESE,113,0.0,10.0,51,0.00,,,0.00,weatherlink.com 1.10,2013-02-25 18:47:00,
2013-02-25 14:02:00,85.9,65.0,29.81,ENE,75,0.0,4.0,49,0.00,,,0.00,weatherlink.com 1.10,2013-02-25 19:02:00,
2013-02-25 14:33:00,84.6,64.0,29.80,SW,233,2.0,5.0,51,0.00,,,0.00,weatherlink.com 1.10,2013-02-25 19:33:00,
2013-02-25 14:48:00,80.9,68.0,29.81,NNW,345,2.0,9.0,64,0.06,,,0.06,weatherlink.com 1.10,2013-02-25 19:48:00,
2013-02-25 15:03:00,76.5,71.0,29.81,West,263,0.0,1.0,83,0.06,,,0.06,weatherlink.com 1.10,2013-02-25 20:03:00,
2013-02-25 15:18:00,78.0,71.0,29.80,North,354,0.0,4.0,80,0.06,,,0.06,weatherlink.com 1.10,2013-02-25 20:18:00,
2013-02-25 15:33:00,79.3,72.0,29.80,WSW,255,0.0,1.0,77,0.06,,,0.06,weatherlink.com 1.10,2013-02-25 20:33:00,
2013-02-25 15:48:00,80.0,68.0,29.79,SW,232,0.0,5.0,66,0.00,,,0.06,weatherlink.com 1.10,2013-02-25 20:48:00,
2013-02-25 16:03:00,82.5,68.0,29.80,ENE,67,0.0,1.0,62,0.00,,,0.06,weatherlink.com 1.10,2013-02-25 21:03:00,
2013-02-25 16:18:00,83.4,68.0,29.79,WNW,288,0.0,2.0,61,0.00,,,0.06,weatherlink.com 1.10,2013-02-25 21:18:00,
2013-02-25 16:33:00,83.8,67.0,29.79,NE,41,0.0,2.0,57,0.00,,,0.06,weatherlink.com 1.10,2013-02-25 21:33:00,
2013-02-25 16:48:00,82.2,66.0,29.79,NW,319,0.0,2.0,59,0.00,,,0.06,weatherlink.com 1.10,2013-02-25 21:48:00,
2013-02-25 17:03:00,81.3,66.0,29.78,NW,309,0.0,1.0,61,0.00,,,0.06,weatherlink.com 1.10,2013-02-25 22:03:00,
2013-02-25 17:19:00,80.5,68.0,29.78,NW,319,0.0,0.0,65,0.00,,,0.06,weatherlink.com 1.10,2013-02-25 22:19:00,
2013-02-25 17:34:00,79.2,68.0,29.78,NNE,13,2.0,5.0,69,0.00,,,0.06,weatherlink.com 1.10,2013-02-25 22:34:00,
2013-02-25 17:48:00,76.5,69.0,29.79,NNE,22,2.0,6.0,78,0.00,,,0.06,weatherlink.com 1.10,2013-02-25 22:48:00,
2013-02-25 18:03:00,75.4,70.0,29.79,NE,51,3.0,5.0,82,0.00,,,0.06,weatherlink.com 1.10,2013-02-25 23:03:00,
2013-02-25 18:18:00,74.6,70.0,29.79,ENE,57,4.0,8.0,86,0.00,,,0.06,weatherlink.com 1.10,2013-02-25 23:18:00,
2013-02-25 18:33:00,74.0,70.0,29.80,ENE,59,3.0,7.0,88,0.00,,,0.06,weatherlink.com 1.10,2013-02-25 23:33:00,
2013-02-25 18:48:00,73.4,70.0,29.81,SW,231,2.0,5.0,88,0.00,,,0.06,weatherlink.com 1.10,2013-02-25 23:48:00,
2013-02-25 19:03:00,73.0,70.0,29.80,NNE,32,0.0,5.0,89,0.00,,,0.06,weatherlink.com 1.10,2013-02-26 00:03:00,
2013-02-25 19:18:00,72.6,70.0,29.80,NE,37,5.0,6.0,90,0.00,,,0.06,weatherlink.com 1.10,2013-02-26 00:18:00,
2013-02-25 19:33:00,72.3,70.0,29.81,ENE,58,2.0,3.0,91,0.00,,,0.06,weatherlink.com 1.10,2013-02-26 00:33:00,
2013-02-25 19:48:00,72.0,69.0,29.81,NNE,32,0.0,1.0,91,0.00,,,0.06,weatherlink.com 1.10,2013-02-26 00:48:00,
2013-02-25 20:03:00,71.6,69.0,29.81,NNE,32,0.0,0.0,92,0.00,,,0.06,weatherlink.com 1.10,2013-02-26 01:03:00,
2013-02-25 20:18:00,71.2,69.0,29.81,SE,134,0.0,1.0,93,0.00,,,0.06,weatherlink.com 1.10,2013-02-26 01:18:00,
2013-02-25 20:33:00,71.0,69.0,29.82,South,186,0.0,5.0,92,0.00,,,0.06,weatherlink.com 1.10,2013-02-26 01:33:00,
2013-02-25 20:48:00,70.7,68.0,29.81,SSE,155,3.0,3.0,91,0.01,,,0.07,weatherlink.com 1.10,2013-02-26 01:48:00,
2013-02-25 21:03:00,69.9,68.0,29.81,SSE,162,0.0,3.0,93,0.01,,,0.07,weatherlink.com 1.10,2013-02-26 02:03:00,
2013-02-25 21:18:00,69.4,68.0,29.81,SSE,148,0.0,2.0,94,0.01,,,0.07,weatherlink.com 1.10,2013-02-26 02:18:00,
2013-02-25 21:33:00,68.8,67.0,29.82,South,170,0.0,0.0,94,0.01,,,0.07,weatherlink.com 1.10,2013-02-26 02:33:00,
2013-02-25 21:48:00,68.4,67.0,29.82,South,170,0.0,0.0,95,0.00,,,0.07,weatherlink.com 1.10,2013-02-26 02:48:00,
2013-02-25 22:03:00,67.9,67.0,29.80,South,170,0.0,0.0,95,0.00,,,0.07,weatherlink.com 1.10,2013-02-26 03:03:00,
2013-02-25 22:18:00,67.6,67.0,29.81,South,170,0.0,0.0,96,0.00,,,0.07,weatherlink.com 1.10,2013-02-26 03:18:00,
2013-02-25 22:33:00,67.5,66.0,29.81,South,171,0.0,0.0,96,0.00,,,0.07,weatherlink.com 1.10,2013-02-26 03:33:00,
2013-02-25 22:48:00,67.4,66.0,29.81,South,170,0.0,0.0,96,0.00,,,0.07,weatherlink.com 1.10,2013-02-26 03:48:00,
2013-02-25 23:03:00,67.3,66.0,29.81,South,170,0.0,0.0,96,0.00,,,0.07,weatherlink.com 1.10,2013-02-26 04:03:00,
2013-02-25 23:18:00,67.1,66.0,29.81,South,170,0.0,0.0,96,0.00,,,0.07,weatherlink.com 1.10,2013-02-26 04:18:00,
2013-02-25 23:33:00,67.1,66.0,29.80,South,170,0.0,0.0,96,0.00,,,0.07,weatherlink.com 1.10,2013-02-26 04:33:00,
2013-02-25 23:48:00,67.1,66.0,29.80,South,170,0.0,0.0,97,0.00,,,0.07,weatherlink.com 1.10,2013-02-26 04:48:00,